{"data":{"norad_id":69011,"epoch":"2026-05-25T04:25:34.091040Z","epoch_age_seconds":69553,"freshness":"FRESH","line1":"1 69011U 26100AH  26145.18442235  .00004403  00000+0  20516-3 0  9990","line2":"2 69011  97.4072  43.4283 0006423 107.7340 252.4597 15.20392835  3318","mean_motion":15.20392835,"eccentricity":0.0006423,"inclination_deg":97.4072,"raan_deg":43.4283,"arg_perigee_deg":107.734,"mean_anomaly_deg":252.4597,"bstar":0.00020516,"rev_number":331,"period_min":94.712364255518,"perigee_km":500.23396979592,"apogee_km":509.07560412545,"semimajor_km":6882.7917869607,"source":"CELESTRAK","updated_at":"2026-05-25T13:38:09.039479Z"}}